Weather History for LEPA - June, 2013

Change the Weather History Date:

Monday, June 3, 2013

  Actual Average Record
Temperature  
Mean Temperature 63 °F -  
Max Temperature 75 °F 81 °F 89 °F (2005)
Min Temperature 51 °F 60 °F 51 °F (2013)
Degree Days  
Heating Degree Days 2    
Growing Degree Days 13 (Base 50)    
Moisture  
Dew Point 53 °F    
Average Humidity 64    
Maximum Humidity 94    
Minimum Humidity 31    
Precipitation  
Precipitation 0.00 in 0.02 in - ()
Sea Level Pressure  
Sea Level Pressure 30.05 in    
Wind  
Wind Speed 5 mph ()    
Max Wind Speed 14 mph    
Max Gust Speed 20 mph    
Visibility 7.5 miles    
Events      
Averages and records for this station are not official NWS values.
T = Trace of Precipitation, MM = Missing Value Source: Averaged Metar Reports

Daily Weather History Graph

Daily Weather History Graph

Search for Another Location

Airport or City:

Trip Planner

Search our weather history database for the weather conditions in past years. The results will help you decide how hot, cold, wet, or windy it might be!

Date:

Astronomy

Jun. 03, 2013 Rise Set
Actual Time 6:22 AM CEST 9:11 PM CEST
Civil Twilight 5:50 AM CEST 9:43 PM CEST
Nautical Twilight 5:10 AM CEST 10:24 PM CEST
Astronomical Twilight 4:24 AM CEST 11:10 PM CEST
Moon 3:11 AM CEST (6/3) 4:28 PM CEST (6/3)
Length of Visible Light 15h 53m
Length of Day
14h 49m
Waning Crescent, 24% of the Moon is Illuminated
Jun 3
Waning Crescent
Jun 8
New
Jun 16
First Quarter
Jun 23
Full
Jun 30
Last Quarter

Hourly Weather History & Observations

Time (CEST) Temp. Dew Point Humidity Pressure Visibility Wind Dir Wind Speed Gust Speed Precip Events Conditions
12:00 AM 62.6 °F 53.6 °F 72% 30.06 in - ENE 4.6 mph - N/A   Clear
12:30 AM 60.8 °F 53.6 °F 77% 30.06 in - Variable 2.3 mph - N/A   Clear
1:00 AM 60.8 °F 53.6 °F 77% 30.06 in - ENE 4.6 mph - N/A   Clear
1:30 AM 60.8 °F 53.6 °F 77% 30.06 in - Variable 1.2 mph - N/A   Clear
2:00 AM 58 °F 51 °F 72% 30.08 in 12 mi North 5.8 mph - -  
2:00 AM 60.8 °F 53.6 °F 77% 30.06 in - North 4.6 mph 19.6 mph N/A   Clear
2:30 AM 59.0 °F 51.8 °F 77% 30.06 in - NNE 4.6 mph - N/A   Clear
3:00 AM 59.0 °F 51.8 °F 77% 30.06 in - Calm Calm - N/A   Clear
3:30 AM 55.4 °F 50.0 °F 82% 30.06 in - Calm Calm - N/A   Clear
4:00 AM 55.4 °F 51.8 °F 88% 30.06 in - Calm Calm - N/A   Clear
4:30 AM 53.6 °F 50.0 °F 88% 30.06 in - Variable 1.2 mph - N/A   Clear
5:00 AM 53.6 °F 50.0 °F 88% 30.06 in - ENE 1.2 mph - N/A   Clear
5:30 AM 53.6 °F 50.0 °F 88% 30.06 in - NE 1.2 mph - N/A   Clear
6:00 AM 51.8 °F 50.0 °F 94% 30.06 in 6.2 mi Calm Calm - N/A   Partly Cloudy
6:30 AM 53.6 °F 50.0 °F 88% 30.06 in 6.2 mi NE 1.2 mph - N/A   Partly Cloudy
7:00 AM 53.6 °F 50.0 °F 88% 30.06 in 6.2 mi Variable 1.2 mph - N/A   Partly Cloudy
7:30 AM 57.2 °F 51.8 °F 82% 30.06 in 6.2 mi Calm Calm - N/A   Partly Cloudy
8:00 AM 62 °F 51 °F 58% 30.07 in 19 mi Calm Calm - -   Scattered Clouds
8:00 AM 60.8 °F 53.6 °F 77% 30.06 in 6.2 mi North 1.2 mph - N/A   Partly Cloudy
8:30 AM 64.4 °F 53.6 °F 68% 30.06 in 6.2 mi Calm Calm - N/A   Partly Cloudy
9:00 AM 68.0 °F 51.8 °F 56% 30.06 in 6.2 mi Calm Calm - N/A   Partly Cloudy
9:30 AM 71.6 °F 50.0 °F 46% 30.06 in 6.2 mi Variable 1.2 mph - N/A   Partly Cloudy
10:00 AM 73.4 °F 44.6 °F 36% 30.06 in 6.2 mi Calm Calm - N/A   Partly Cloudy
10:30 AM 71.6 °F 50.0 °F 46% 30.06 in 6.2 mi SW 8.1 mph - N/A   Partly Cloudy
11:00 AM 71.6 °F 50.0 °F 46% 30.06 in 6.2 mi SW 8.1 mph - N/A   Partly Cloudy
11:30 AM 71.6 °F 51.8 °F 50% 30.06 in 6.2 mi SW 9.2 mph - N/A   Partly Cloudy
12:00 PM 73.4 °F 51.8 °F 47% 30.06 in 6.2 mi SW 10.4 mph - N/A   Partly Cloudy
12:30 PM 73.4 °F 51.8 °F 47% 30.06 in 6.2 mi SW 11.5 mph - N/A   Partly Cloudy
1:00 PM 73.4 °F 53.6 °F 50% 30.06 in 6.2 mi SW 11.5 mph - N/A   Partly Cloudy
1:30 PM 75.2 °F 53.6 °F 47% 30.06 in 6.2 mi WSW 12.7 mph - N/A   Partly Cloudy
2:00 PM 75 °F 50 °F 31% 30.06 in 19 mi SSW 12.7 mph - -   Scattered Clouds
2:00 PM 75.2 °F 50.0 °F 41% 30.06 in 6.2 mi SSW 13.8 mph - N/A   Partly Cloudy
2:30 PM 75.2 °F 51.8 °F 44% 30.04 in 6.2 mi SSW 11.5 mph - N/A   Partly Cloudy
3:00 PM 73.4 °F 50.0 °F 44% 30.04 in 6.2 mi SW 12.7 mph - N/A   Partly Cloudy
3:30 PM 75.2 °F 50.0 °F 41% 30.04 in 6.2 mi SSW 12.7 mph - N/A   Partly Cloudy
4:00 PM 75.2 °F 53.6 °F 47% 30.04 in 6.2 mi SW 12.7 mph - N/A   Partly Cloudy
4:30 PM 73.4 °F 57.2 °F 57% 30.04 in 6.2 mi SSW 13.8 mph - N/A   Partly Cloudy
5:00 PM 73.4 °F 55.4 °F 53% 30.04 in 6.2 mi SW 12.7 mph - N/A   Partly Cloudy
5:30 PM 71.6 °F 55.4 °F 57% 30.04 in 6.2 mi SSW 13.8 mph - N/A   Partly Cloudy
6:00 PM 71.6 °F 55.4 °F 57% 30.04 in 6.2 mi SW 11.5 mph - N/A   Partly Cloudy
6:30 PM 71.6 °F 55.4 °F 57% 30.04 in 6.2 mi SW 12.7 mph - N/A   Partly Cloudy
7:00 PM 71.6 °F 57.2 °F 60% 30.04 in 6.2 mi SW 11.5 mph - N/A   Partly Cloudy
7:30 PM 69.8 °F 55.4 °F 60% 30.04 in 6.2 mi SW 10.4 mph - N/A   Partly Cloudy
8:00 PM 69 °F 55 °F 52% 30.04 in 19 mi SW 11.5 mph - -   Scattered Clouds
8:00 PM 69.8 °F 57.2 °F 64% 30.04 in 6.2 mi SW 9.2 mph - N/A   Partly Cloudy
8:30 PM 68.0 °F 57.2 °F 68% 30.04 in 6.2 mi SW 6.9 mph - N/A   Partly Cloudy
9:00 PM 68.0 °F 55.4 °F 64% 30.04 in - SSW 5.8 mph - N/A   Clear
9:30 PM 66.2 °F 57.2 °F 73% 30.04 in - SSW 3.5 mph - N/A   Clear
10:00 PM 66.2 °F 59.0 °F 78% 30.04 in - SW 3.5 mph - N/A   Clear
10:30 PM 66.2 °F 57.2 °F 73% 30.04 in - Calm Calm - N/A   Clear
11:00 PM 64.4 °F 57.2 °F 77% 30.06 in - Variable 1.2 mph - N/A   Clear
11:30 PM 62.6 °F 55.4 °F 77% 30.06 in - Calm Calm - N/A   Clear